Hourly Data Report for October 30, 2014

All times are specified in Local Standard Time (LST). Add 1 hour to adjust for Daylight Saving Time where and when it is observed.

KITCHENER/WATERLOO
ONTARIO

43°27'39.000" N
80°22'43.000" W
321.60 m
6144239
71368
YKF

Related Data

No related data is available for this station

Download Data

Hourly Data (October 2014)
Hourly Data Report for October 30, 2014
Temp Definition
°C
Dew Point Temp Definition
°C
Rel Hum Definition
%
Wind Dir Definition
10's deg

Wind Spd Definition
km/h
Visibility Definition
km
Stn Press Definition
kPa
Hmdx Definition


Wind Chill Definition


Weather Definition


TIME
00:00 Legend Double Dagger 3.0 1.8 92 29 9 16.1 97.77     LegendNANA
01:00 Legend Double Dagger 2.4 1.5 94 30 5 16.1 97.81     LegendNANA
02:00 Legend Double Dagger 2.8 1.9 94 29 9 16.1 97.83     LegendNANA
03:00 Legend Double Dagger 3.8 2.9 94 27 11 16.1 97.84     LegendNANA
04:00 Legend Double Dagger 4.1 3.2 94 28 17 12.9 97.87     LegendNANA
05:00 Legend Double Dagger 4.2 3.2 93 29 13 16.1 97.92     LegendNANA
06:00 Legend Double Dagger 3.4 2.5 94 29 11 16.1 97.94     LegendNANA
07:00 Legend Double Dagger 2.1 1.1 93 29 11 16.1 97.96     LegendNANA
08:00 Legend Double Dagger 3.6 1.7 87 28 15 16.1 98.00     LegendNANA
09:00 Legend Double Dagger 5.2 1.9 79 31 18 16.1 98.03     LegendNANA
10:00 Legend Double Dagger 5.6 1.8 77 31 17 16.1 98.04     LegendNANA
11:00 Legend Double Dagger 6.4 1.7 72 29 13 16.1 98.04     LegendNANA
12:00 Legend Double Dagger 7.1 1.3 67 30 13 16.1 98.00     LegendNANA
13:00 Legend Double Dagger 6.7 1.1 67 26 18 16.1 97.96     LegendNANA
14:00 Legend Double Dagger 7.2 0.7 63 31 13 16.1 97.93     LegendNANA
15:00 Legend Double Dagger 6.8 0.6 65 32 8 16.1 97.90     LegendNANA
16:00 Legend Double Dagger 7.0 0.7 64 30 9 16.1 97.91     LegendNANA
17:00 Legend Double Dagger 6.2 0.6 67 30 11 16.1 97.89     LegendNANA
18:00 Legend Double Dagger 5.1 1.2 76 27 9 16.1 97.92     LegendNANA
19:00 Legend Double Dagger 5.7 1.2 73 29 15 16.1 97.91     LegendNANA
20:00 Legend Double Dagger 4.3 1.8 84 27 8 16.1 97.88     LegendNANA
21:00 Legend Double Dagger 4.7 2.2 84 30 9 16.1 97.86     LegendNANA
22:00 Legend Double Dagger 4.5 2.4 86 33 4 16.1 97.81     LegendNANA
23:00 Legend Double Dagger 3.7 2.5 92   0 16.1 97.76     LegendNANA

Notes on Data Quality.

Legend

  • E = Estimated
  • M = Missing
  • NA = Not Available
  • ‡ = Partner data that is not subject to review by the National Climate Archives
Date modified: